Location: Jackson
(35.6140°N, 88.8140°W)
Time: 17:19:17
(UTC-05:00)

Tiangong 2 - Visible Passes

Search period start: 25 March 2019 00:00
Search period end: 04 April 2019 00:00
Orbit: 380 x 389 km, 42.8° (Epoch: 25 March)

Date Brightness Start Highest point End Pass type
(mag) Time Alt. Az. Time Alt. Az. Time Alt. Az.
25 Mar 3.3 06:07:50 11° SW 06:08:21 12° SW 06:09:32 10° SSW visible
28 Mar 4.0 21:16:05 10° SW 21:16:24 12° SW 21:16:24 12° SW visible
29 Mar 1.7 20:16:50 10° SW 20:19:45 36° SSE 20:20:31 30° ESE visible
30 Mar 1.5 20:53:46 10° WSW 20:56:42 59° NW 20:56:42 59° NW visible
31 Mar 1.0 19:54:12 10° SW 19:57:19 73° SSE 20:00:27 10° ENE visible
31 Mar 4.0 21:31:32 10° WNW 21:32:42 18° WNW 21:32:42 18° WNW visible
01 Apr 2.3 20:31:37 10° W 20:34:34 37° NNW 20:36:17 20° NE visible
02 Apr 3.2 21:09:29 10° WNW 21:11:58 22° N 21:11:58 22° N visible
03 Apr 2.9 20:09:33 10° WNW 20:12:19 27° NNW 20:15:03 10° NE visible
03 Apr 4.5 21:47:06 10° NW 21:47:33 12° NW 21:47:33 12° NW visible
